STARLINK-1287 (45371 NORAD) Tracking and Keplerian Element Data

This shows tracking and keplerian element data for the satellite.

Feedback or suggestion? Click here.




ElementValue
Catalog45371
NameSTARLINK-1287
Epoch Orbit1097
Epoch Day145.75001157
Epoch Year2020
RAAN300.9543
Inclination52.9997
Eccentricity0.0001406
Argument of Perigee80.0003
Mean Anonmoly190.6201
Mean Motion15.05579679
Decay Rate6.66E-06
L11 45371U 20019M 20145.75001157 .00000666 00000-0 64857-4 0 9992
L22 45371 52.9997 300.9543 0001406 80.0003 190.6201 15.05579679 10979

Live tracking and technical data element details for STARLINK-1287 (NORAD 45371). STARLINK-1287 can be tracked NOW for your location showing map with azimuth and elevation plus other details from your city location.

Track the satellite on the map from your city or location and see movement details for azimuth, elevation, latitude, longitude, range, height, and movement on the map or in text.







IsCatalogInMostPopularTable: catalog: 45371, numindb: 12
Update: records affected: 1



GetName: 45371 STARLINK-1287

Hit Count: updated at: Tue, 26 May 2020 02:14:25 GMT